DateTimeUTC,F1_A11,F1_S11,BsB_S11,BsG_S11,BsR_S11,BbsB_S11,BbsG_S11,BbsR_S11,BaB_A11,BaG_A11,BaR_A11,T_S11,U_S11,P_S11,T1_A11
2020-07-02T00:00:00Z,00000388,20000608,,,,,,,,,,26.8,09.3,0677.4,31.2
2020-07-02T00:01:00Z,00000388,20000608,,,,,,,,,,26.8,09.2,0677.4,31.2
2020-07-02T00:02:00Z,00000388,20000608,,,,,,,,,,26.8,09.2,0677.4,31.2
2020-07-02T00:03:00Z,00000388,60000608,,,,,,,,,,26.8,09.2,0677.4,31.2
2020-07-02T00:04:00Z,00000388,40000608,0001.54,0000.59,0000.52,-000.05,0000.31,0000.40,0000.30,0000.32,0000.28,26.6,09.5,0678.4,31.2
2020-07-02T00:05:00Z,00000388,00000608,0001.48,0001.28,0000.55,-000.29,0000.64,0000.18,0000.17,0000.19,0000.10,26.6,09.5,0678.4,31.2
2020-07-02T00:06:00Z,00000388,00000608,0001.34,0000.87,0000.84,-000.29,0000.34,0000.34,0000.26,0000.16,0000.19,26.6,09.6,0678.4,31.2
2020-07-02T00:07:00Z,00000388,00000608,0002.21,0001.27,0000.71,-000.06,0000.25,-000.18,0000.34,0000.22,0000.15,26.6,09.6,0678.4,31.2
2020-07-02T00:08:00Z,00000388,00000608,0001.45,0001.24,0000.81,0000.01,0000.11,0000.50,0000.04,0000.26,0000.08,26.6,09.6,0678.4,31.2
2020-07-02T00:09:00Z,00000388,00000608,0001.93,0001.10,0000.97,-000.52,0000.19,-000.01,0001.09,0000.80,0000.82,26.5,09.6,0678.4,31.2
2020-07-02T00:10:00Z,00000388,00000608,0000.73,0000.40,0000.81,0000.05,0000.15,0000.38,0000.20,0000.25,-000.01,26.6,09.6,0678.4,31.2
2020-07-02T00:11:00Z,00000388,00000608,0002.13,0000.35,0000.35,0000.41,0000.66,0000.17,0000.20,0000.19,0000.16,26.5,09.6,0678.4,31.2
2020-07-02T00:12:00Z,00000388,00000608,0001.96,0000.79,0001.10,0000.51,0000.42,0000.15,0000.21,0000.10,0000.28,26.5,09.7,0678.4,31.2
2020-07-02T00:13:00Z,00000388,00000608,0001.88,0000.42,0000.38,0000.10,0000.15,0000.24,0000.09,0000.20,-000.05,26.5,09.7,0678.4,31.2
2020-07-02T00:14:00Z,00000388,00000608,0001.71,0000.79,0001.22,-000.47,-000.09,0000.03,0000.18,0000.28,0000.17,26.5,09.6,0678.4,31.2
2020-07-02T00:15:00Z,00000388,00000608,0001.36,0001.17,0000.79,-000.34,-000.06,-000.09,0000.19,0000.08,0000.15,26.5,09.6,0678.4,31.2
2020-07-02T00:16:00Z,00000388,00000608,0000.59,0000.81,0001.00,0000.51,0000.16,-000.01,0000.23,0000.17,0000.04,26.5,09.6,0678.4,31.2
2020-07-02T00:17:00Z,00000388,00000608,0001.69,0000.67,0000.71,0000.52,0000.16,0000.09,0000.05,0000.09,0000.15,26.5,09.6,0678.4,31.2
2020-07-02T00:18:00Z,00000388,00000608,0000.68,0000.86,0001.11,-000.24,0000.08,-000.08,0000.19,0000.22,0000.09,26.5,09.6,0678.4,31.2
2020-07-02T00:19:00Z,00000388,00000608,0001.54,0001.14,0000.91,0000.29,0000.24,-000.17,0000.19,0000.09,0000.11,26.5,09.5,0678.4,31.2
2020-07-02T00:20:00Z,00000388,00000608,0001.29,0000.51,0001.02,0000.03,0000.33,-000.12,0000.18,0000.20,0000.19,26.5,09.5,0678.4,31.2
2020-07-02T00:21:00Z,00000388,00000608,0001.99,0001.02,0000.66,0000.14,0000.10,0000.11,0000.19,0000.15,0000.12,26.5,09.5,0678.4,31.2
2020-07-02T00:22:00Z,00000388,00000608,0001.86,0000.92,0000.59,-000.47,0000.23,0000.21,0000.14,0000.21,0000.09,26.5,09.5,0678.4,31.2
2020-07-02T00:23:00Z,00000388,00000608,0000.93,0000.83,0000.94,0000.42,0000.20,0000.58,0000.17,0000.08,-000.02,26.5,09.5,0678.4,31.2
2020-07-02T00:24:00Z,00000388,00000608,0001.62,0000.59,0000.87,0000.26,0000.36,-000.04,0000.14,0000.10,0000.08,26.5,09.5,0678.4,31.2
2020-07-02T00:25:00Z,00000388,00000608,0002.03,0000.80,0001.00,0000.73,0000.09,0000.18,0000.17,0000.24,0000.20,26.5,09.5,0678.4,31.2
2020-07-02T00:26:00Z,00000388,00000608,0001.47,0000.98,0000.68,-000.35,0000.30,-000.05,0000.19,0000.04,0000.11,26.5,09.6,0678.4,31.2
2020-07-02T00:27:00Z,00000388,00000608,0001.66,0001.12,0000.90,-000.12,0000.28,0000.50,0000.12,0000.15,0000.05,26.5,09.5,0678.4,31.2
2020-07-02T00:28:00Z,00000388,00000608,0001.73,0001.37,0000.70,-000.04,0000.21,0000.24,0000.16,0000.11,0000.24,26.5,09.5,0678.4,31.2
2020-07-02T00:29:00Z,00000388,00000608,0002.36,0000.64,0001.11,-000.10,-000.02,0000.12,0000.24,0000.24,0000.07,26.4,09.5,0678.4,31.2
2020-07-02T00:30:00Z,00000388,00000608,0001.67,0001.08,0001.29,0000.08,0000.25,0000.35,0000.75,0000.76,0000.58,26.4,09.5,0678.4,31.2
2020-07-02T00:31:00Z,00000388,00000608,0001.94,0001.43,0000.97,-000.09,0000.15,0000.42,0002.43,0002.22,0001.58,26.4,09.4,0678.4,31.2
2020-07-02T00:32:00Z,00000388,00010608,0004.10,0002.29,0001.66,0000.72,0000.14,0000.27,0005.74,0005.13,0004.09,26.4,09.3,0678.4,31.2
2020-07-02T00:33:00Z,00000388,00000608,0003.55,0002.14,0001.51,0000.00,0000.43,0000.50,0006.56,0005.96,0004.44,26.4,09.2,0678.4,31.2
2020-07-02T00:34:00Z,00000388,00000608,0001.80,0001.24,0001.09,-000.01,-000.01,0000.02,0003.15,0003.00,0002.19,26.4,09.2,0678.4,31.2
2020-07-02T00:35:00Z,00000388,00000608,0001.71,0001.10,0001.03,0001.07,0000.13,0000.10,0002.82,0002.39,0002.02,26.4,09.2,0678.4,31.2
2020-07-02T00:36:00Z,00000388,00000608,0002.78,0001.60,0001.53,0000.24,0000.65,0000.03,0003.10,0002.92,0002.11,26.4,08.9,0678.4,31.2
2020-07-02T00:37:00Z,00000388,00000608,0001.59,0000.52,0000.62,-000.41,0000.57,0000.35,0000.76,0000.64,0000.64,26.4,08.8,0678.4,31.2
2020-07-02T00:38:00Z,00000388,00000608,0003.05,0000.93,0000.80,0000.40,-000.09,0000.16,0000.45,0000.54,0000.28,26.4,09.0,0678.4,31.2
2020-07-02T00:39:00Z,00000388,00000608,0001.87,0001.07,0000.25,-000.71,0000.26,-000.39,0000.33,0000.20,0000.28,26.4,09.4,0678.4,31.2
2020-07-02T00:40:00Z,00000388,00000608,0001.87,0001.01,0001.00,-000.34,-000.10,0000.33,0000.12,0000.29,0000.17,26.4,09.6,0678.4,31.2
2020-07-02T00:41:00Z,00000388,00000608,0000.55,0000.83,0000.89,0000.05,0000.34,-000.23,0000.27,0000.15,0000.10,26.4,09.7,0678.4,31.2
2020-07-02T00:42:00Z,00000388,00000608,0001.24,0000.72,0000.99,-000.04,0000.13,-000.05,0000.08,0000.03,0000.06,26.4,09.6,0678.4,31.2
2020-07-02T00:43:00Z,00000388,00000608,0001.99,0000.76,0000.90,0000.16,0000.39,0000.23,0000.31,0000.11,0000.12,26.4,09.6,0678.4,31.2
2020-07-02T00:44:00Z,00000388,00000608,0002.28,0000.58,0001.04,-000.19,0000.69,0000.36,0000.22,0000.31,0000.13,26.4,09.8,0678.4,31.2
2020-07-02T00:45:00Z,00000388,00000608,0001.65,0001.87,0000.75,-000.51,0000.19,-000.15,0000.06,0000.15,0000.15,26.4,09.8,0678.4,31.2
2020-07-02T00:46:00Z,00000388,00000608,0001.55,0000.70,0000.35,0000.81,0000.20,-000.04,0000.32,0000.14,-000.07,26.4,09.7,0678.4,31.2
2020-07-02T00:47:00Z,00000388,00000608,0001.96,0002.06,0000.99,0000.33,0000.12,0000.37,0002.48,0002.35,0001.86,26.4,09.7,0678.4,31.2
2020-07-02T00:48:00Z,00000388,00000608,0004.62,0002.81,0002.13,0000.89,0000.82,0000.38,0008.50,0007.56,0005.97,26.4,09.6,0678.4,31.2
2020-07-02T00:49:00Z,00000388,00000608,0002.48,0001.56,0000.87,0000.64,0000.68,-000.28,0003.08,0002.80,0002.32,26.4,09.6,0678.4,31.2
2020-07-02T00:50:00Z,00000388,00000608,0003.19,0002.01,0001.44,0000.80,0000.16,-000.10,0004.86,0004.58,0003.31,26.3,09.7,0678.4,31.2
2020-07-02T00:51:00Z,00000388,00000608,0005.50,0003.68,0002.47,0001.43,0000.49,0000.36,0011.44,0010.43,0008.15,26.3,09.6,0678.4,31.2
2020-07-02T00:52:00Z,00000388,00000608,0008.87,0005.88,0003.40,0001.48,0000.98,0000.54,0020.93,0018.76,0014.28,26.3,09.6,0678.4,31.2
2020-07-02T00:53:00Z,00000388,00000608,0009.74,0007.58,0004.44,0002.51,0001.08,0000.70,0032.83,0029.83,0023.03,26.4,09.6,0678.4,31.2
2020-07-02T00:54:00Z,00000388,00000608,0009.41,0005.99,0004.08,0001.29,0000.70,0000.72,0029.61,0027.14,0021.01,26.4,09.6,0678.4,31.2
2020-07-02T00:55:00Z,00000388,00000608,0005.10,0004.62,0002.69,0001.19,0001.23,0000.83,0017.12,0015.34,0011.79,26.3,09.5,0678.4,31.2
2020-07-02T00:56:00Z,00000388,00000608,0007.01,0005.32,0003.11,0001.46,0001.26,0000.53,0020.37,0018.56,0014.22,26.3,09.4,0678.4,31.2
2020-07-02T00:57:00Z,00000388,40000608,,,,,,,,,,26.4,09.6,0678.4,31.2
2020-07-02T00:58:00Z,00000388,60000608,,,,,,,,,,26.4,09.2,0677.3,31.2
2020-07-02T00:59:00Z,00000388,20000608,,,,,,,,,,26.5,09.1,0677.3,31.2
2020-07-02T01:00:00Z,00000388,20000608,,,,,,,,,,26.5,09.0,0677.3,31.2
2020-07-02T01:01:00Z,00000388,20000608,,,,,,,,,,26.5,09.0,0677.3,31.2
2020-07-02T01:02:00Z,00000388,20000608,,,,,,,,,,26.5,09.0,0677.3,31.2
2020-07-02T01:03:00Z,00000388,60000608,,,,,,,,,,26.5,09.0,0677.3,31.2
2020-07-02T01:04:00Z,00000388,40000608,0001.80,0000.90,0000.32,-000.35,0000.33,0000.30,0000.09,0000.21,0000.10,26.4,09.3,0678.2,31.2
2020-07-02T01:05:00Z,00000388,00000608,0001.41,0000.65,0000.87,0001.01,-000.11,0000.07,0000.30,0000.01,0000.10,26.3,09.3,0678.3,31.2
2020-07-02T01:06:00Z,00000388,00000608,0001.43,0000.90,0000.76,-000.08,-000.28,-000.03,0000.23,0000.38,0000.21,26.3,09.3,0678.3,31.2
2020-07-02T01:07:00Z,00000388,00000608,0000.70,0001.20,0000.01,-000.07,0000.00,0000.18,0000.07,-000.04,0000.07,26.3,09.4,0678.3,31.2
2020-07-02T01:08:00Z,00000388,00000608,0002.20,0000.80,0000.41,0000.27,0000.53,0000.24,0000.22,0000.33,0000.19,26.3,09.5,0678.3,31.2
2020-07-02T01:09:00Z,00000388,00000608,0001.89,0000.70,0000.46,-000.40,0000.16,0000.04,0000.14,0000.07,0000.13,26.3,09.5,0678.3,31.2
2020-07-02T01:10:00Z,00000388,00000608,0000.30,0000.42,0000.69,0000.05,0000.37,0000.16,0000.58,0000.52,0000.34,26.3,09.4,0678.3,31.2
2020-07-02T01:11:00Z,00000388,00000608,0001.92,0001.85,0002.07,0000.07,0000.67,0000.46,0004.44,0004.10,0003.09,26.3,09.5,0678.3,31.2
2020-07-02T01:12:00Z,00000388,00000608,0003.31,0001.91,0001.93,0000.16,0000.65,0000.33,0005.34,0004.75,0003.67,26.3,09.5,0678.3,31.2
2020-07-02T01:13:00Z,00000388,00000608,0003.19,0001.53,0001.83,-000.52,0000.45,0000.05,0005.21,0004.83,0003.85,26.3,09.5,0678.3,31.2
2020-07-02T01:14:00Z,00000388,00000608,0002.12,0001.31,0000.57,0000.36,0000.27,-000.38,0002.28,0002.02,0001.44,26.3,09.4,0678.3,31.2
2020-07-02T01:15:00Z,00000388,00000608,0001.82,0001.54,0000.72,-000.46,0000.27,0000.19,0000.93,0000.91,0000.72,26.3,09.4,0678.3,31.2
2020-07-02T01:16:00Z,00000388,00000608,0002.17,0001.16,0000.62,-000.04,0000.30,0000.21,0000.79,0000.74,0000.51,26.3,09.4,0678.3,31.2
2020-07-02T01:17:00Z,00000388,00000608,0002.65,0001.48,0000.34,0000.02,0000.22,0000.05,0000.54,0000.40,0000.40,26.3,09.3,0678.3,31.2
2020-07-02T01:18:00Z,00000388,00000608,0001.16,0001.34,0000.81,0000.30,0000.66,0000.27,0000.67,0000.55,0000.51,26.3,09.3,0678.3,31.2
2020-07-02T01:19:00Z,00000388,00000608,0002.15,0001.14,0000.57,0000.22,0000.33,0000.22,0000.47,0000.56,0000.30,26.3,09.4,0678.3,31.2
2020-07-02T01:20:00Z,00000388,00000608,0000.97,0001.07,0000.35,0000.12,0000.25,-000.26,0000.45,0000.27,0000.21,26.3,09.3,0678.3,31.2
2020-07-02T01:21:00Z,00000388,00000608,0002.01,0001.25,0001.47,0000.22,0000.31,0000.34,0000.86,0000.90,0000.70,26.3,09.4,0678.3,31.2
2020-07-02T01:22:00Z,00000388,00000608,0002.35,0001.07,0000.94,-000.31,0000.28,0000.16,0000.47,0000.42,0000.33,26.3,09.5,0678.2,31.2
2020-07-02T01:23:00Z,00000388,00000608,0001.53,0000.75,0000.52,-000.02,0000.66,0000.07,0000.50,0000.37,0000.23,26.2,09.5,0678.2,31.2
2020-07-02T01:24:00Z,00000388,00000608,0001.86,0001.43,0000.57,-000.49,0000.71,0000.10,0000.25,0000.32,0000.31,26.2,09.6,0678.2,31.2
2020-07-02T01:25:00Z,00000388,00000608,0001.87,0001.27,0000.60,0000.20,0000.35,0000.10,0000.50,0000.46,0000.37,26.2,09.5,0678.2,31.2
2020-07-02T01:26:00Z,00000388,00000608,0001.77,0000.91,0000.44,-000.47,0000.32,-000.05,0000.22,0000.27,0000.18,26.2,09.5,0678.2,31.2
2020-07-02T01:27:00Z,00000388,00000608,0001.69,0000.33,0000.66,0000.17,0000.57,0000.15,0000.19,0000.14,0000.09,26.2,09.6,0678.3,31.2
2020-07-02T01:28:00Z,00000388,00000608,0001.54,0001.11,0001.18,0000.73,0000.45,0000.12,0000.15,0000.07,0000.02,26.2,09.5,0678.3,31.2
2020-07-02T01:29:00Z,00000388,00000608,0001.12,0000.63,0001.07,0000.34,0000.08,0000.45,0000.25,0000.23,0000.12,26.2,09.6,0678.3,31.2
2020-07-02T01:30:00Z,00000388,00000608,0002.18,0000.64,0000.87,0000.51,0000.30,0000.37,0000.07,0000.11,0000.08,26.2,09.5,0678.2,31.2
2020-07-02T01:31:00Z,00000388,00000608,0001.99,0001.17,0000.10,-000.24,0000.37,-000.05,0000.42,0000.27,0000.38,26.2,09.5,0678.2,31.2
2020-07-02T01:32:00Z,00000388,00000608,0004.94,0002.74,0001.59,0001.21,0000.52,0000.22,0007.70,0006.86,0005.21,26.2,09.4,0678.2,31.2
2020-07-02T01:33:00Z,00000388,00000608,0005.83,0003.80,0002.81,0001.06,0000.90,0000.74,0013.72,0012.59,0009.58,26.2,09.5,0678.2,31.2
2020-07-02T01:34:00Z,00000388,00000608,0010.02,0006.83,0003.97,0002.27,0001.32,0000.83,0028.07,0025.57,0019.59,26.2,09.4,0678.2,31.2
2020-07-02T01:35:00Z,00000388,00000608,0011.33,0007.41,0004.82,0001.04,0001.69,0001.04,0037.25,0033.74,0026.15,26.2,09.4,0678.2,31.2
2020-07-02T01:36:00Z,00000388,00000608,0006.22,0004.34,0002.71,0000.67,0001.27,0000.47,0017.14,0015.75,0012.12,26.2,09.4,0678.2,31.2
2020-07-02T01:37:00Z,00000388,00000608,0003.61,0002.74,0002.22,0000.10,0001.00,0000.66,0011.31,0010.15,0007.95,26.2,09.5,0678.2,31.2
2020-07-02T01:38:00Z,00000388,00000608,0003.04,0001.58,0001.12,0000.58,0000.58,0000.35,0003.30,0003.20,0002.31,26.2,09.6,0678.2,31.2
2020-07-02T01:39:00Z,00000388,00000608,0001.21,0001.32,0001.03,0000.21,0000.28,0000.25,0000.68,0000.57,0000.56,26.2,09.8,0678.2,31.2
2020-07-02T01:40:00Z,00000388,00000608,0001.48,0000.85,0000.22,-000.54,0000.18,-000.34,0000.41,0000.31,0000.12,26.2,09.9,0678.2,31.2
2020-07-02T01:41:00Z,00000388,00000608,0001.51,0001.75,0000.87,-000.01,0000.08,-000.00,0000.18,0000.06,0000.27,26.2,09.9,0678.2,31.2
2020-07-02T01:42:00Z,00000388,00000608,0001.04,0001.22,0000.57,0000.58,0000.26,-000.08,0000.22,0000.29,0000.10,26.2,09.8,0678.2,31.2
2020-07-02T01:43:00Z,00000388,00000608,0001.80,0000.93,0000.84,0000.27,0000.24,0000.28,0000.12,0000.09,0000.14,26.2,09.7,0678.2,31.2
2020-07-02T01:44:00Z,00000388,00000608,0002.07,0001.35,0000.84,0000.03,0000.34,-000.10,0000.16,0000.21,0000.12,26.1,09.7,0678.2,31.2
2020-07-02T01:45:00Z,00000388,00000608,0002.09,0001.09,0000.80,-000.06,-000.09,0000.49,0000.29,0000.21,0000.11,26.1,09.8,0678.2,31.2
2020-07-02T01:46:00Z,00000388,00000608,0002.20,0001.00,0000.70,0000.49,0000.04,0000.22,0000.17,0000.15,0000.15,26.1,09.8,0678.2,31.2
2020-07-02T01:47:00Z,00000388,00000608,0001.82,0001.33,0000.53,0000.24,0000.14,0000.25,0000.21,0000.15,0000.10,26.1,09.8,0678.2,31.2
2020-07-02T01:48:00Z,00000388,00000608,0001.56,0000.84,0000.47,0000.04,0000.37,-000.01,0000.14,0000.23,0000.13,26.2,09.8,0678.2,31.2
2020-07-02T01:49:00Z,00000388,00000608,0002.16,0000.61,0001.27,0000.82,0000.13,0000.26,0000.10,0000.23,0000.11,26.1,09.6,0678.2,31.2
2020-07-02T01:50:00Z,00000388,00000608,0000.94,0001.54,0001.07,0000.14,0000.47,0000.33,0000.12,0000.19,0000.09,26.1,09.6,0678.2,31.2
2020-07-02T01:51:00Z,00000388,00000608,0002.01,0001.50,0000.51,-000.13,0000.15,0000.09,0000.15,-000.14,0000.17,26.1,09.5,0678.2,31.2
2020-07-02T01:52:00Z,00000388,00000608,0002.49,0001.31,0000.57,0000.36,0000.24,0000.04,0000.20,0000.35,0000.06,26.1,09.6,0678.2,31.2
2020-07-02T01:53:00Z,00000388,00000608,0002.20,0000.98,0000.41,0000.23,0000.28,0000.27,0000.14,0000.04,0000.03,26.1,09.6,0678.2,31.2
2020-07-02T01:54:00Z,00000388,00000608,0001.58,0001.31,0001.06,0000.73,0000.49,0000.47,0000.22,0000.12,0000.10,26.1,09.6,0678.2,31.2
2020-07-02T01:55:00Z,00000388,00000608,0001.37,0001.25,0000.56,0000.05,0000.19,-000.42,0000.11,0000.26,0000.16,26.1,09.5,0678.2,31.2
2020-07-02T01:56:00Z,00000388,00000608,0002.53,0001.13,0000.84,0000.10,0000.02,0000.02,0000.20,0000.15,0000.20,26.1,09.5,0678.2,31.2
2020-07-02T01:57:00Z,00000388,40000608,,,,,,,,,,26.2,09.6,0678.2,31.2
2020-07-02T01:58:00Z,00000388,60000608,,,,,,,,,,26.2,09.4,0677.1,31.2
2020-07-02T01:59:00Z,00000388,20000608,,,,,,,,,,26.3,09.3,0677.1,31.2
2020-07-02T02:00:00Z,00000388,20000608,,,,,,,,,,26.3,09.2,0677.1,31.2
2020-07-02T02:01:00Z,00000388,20000608,,,,,,,,,,26.3,09.2,0677.1,31.2
2020-07-02T02:02:00Z,00000388,20000608,,,,,,,,,,26.3,09.2,0677.1,31.2
2020-07-02T02:03:00Z,00000388,60000608,,,,,,,,,,26.3,09.2,0677.1,31.2
2020-07-02T02:04:00Z,00000388,40000608,0001.38,0000.95,0000.96,-000.26,0000.62,0000.21,0000.16,0000.12,-000.09,26.2,09.3,0678.1,31.2
2020-07-02T02:05:00Z,00000388,00000608,0001.43,0001.57,0000.41,-000.18,-000.10,-000.20,0000.33,0000.20,0000.22,26.1,09.4,0678.2,31.2
2020-07-02T02:06:00Z,00000388,00000608,0001.93,0001.18,0000.95,0000.39,0000.20,0000.47,0000.08,0000.12,0000.05,26.1,09.4,0678.1,31.2
2020-07-02T02:07:00Z,00000388,00000608,0000.99,0001.07,0000.89,0000.03,-000.04,0000.59,-000.05,0000.23,0000.17,26.1,09.4,0678.1,31.2
2020-07-02T02:08:00Z,00000388,00000608,0002.09,0001.05,0000.86,0000.44,0000.30,0000.38,0000.29,0000.02,0000.07,26.1,09.4,0678.1,31.2
2020-07-02T02:09:00Z,00000380,00000600,0001.14,0001.46,0000.80,-000.29,0000.06,0000.57,0000.13,0000.16,0000.11,26.1,09.5,0678.1,31.2
2020-07-02T02:10:00Z,00000380,00000600,0001.74,0001.10,0001.06,0000.22,-000.20,0000.45,0000.22,0000.21,0000.13,26.1,09.5,0678.1,31.2
2020-07-02T02:11:00Z,00000380,00000600,0001.15,0001.24,0000.36,0000.34,0000.17,0000.41,0000.18,0000.09,0000.12,26.1,09.5,0678.1,31.2
2020-07-02T02:12:00Z,00000380,00000600,0001.54,0001.32,0000.86,0000.55,-000.01,0000.11,0000.17,0000.14,0000.04,26.1,09.5,0678.1,31.1
2020-07-02T02:13:00Z,00000380,00000600,0000.74,0001.29,0000.54,0000.29,0000.32,0000.57,0000.15,0000.10,0000.14,26.1,09.4,0678.1,31.2
2020-07-02T02:14:00Z,00000380,00000600,0002.13,0001.23,0000.55,0000.33,0000.36,0000.04,0000.12,0000.19,0000.05,26.1,09.4,0678.1,31.2
2020-07-02T02:15:00Z,00000380,00000600,0001.55,0000.87,0000.50,-000.19,0000.45,-000.20,0000.14,0000.02,0000.03,26.1,09.4,0678.1,31.2
2020-07-02T02:16:00Z,00000380,00000600,0001.70,0001.10,0000.48,0000.78,-000.04,0000.01,0000.10,0000.07,0000.19,26.1,09.3,0678.1,31.2
2020-07-02T02:17:00Z,00000380,00000600,0000.85,0001.59,0000.70,-000.42,0000.11,0000.26,0000.09,0000.18,-000.02,26.1,09.3,0678.1,31.2
2020-07-02T02:18:00Z,00000380,00000600,0001.80,0000.62,0001.21,0000.05,0000.19,0000.64,0000.17,0000.06,0000.08,26.1,09.2,0678.1,31.2
2020-07-02T02:19:00Z,00000380,00000600,0001.45,0001.00,0000.81,0000.39,0000.06,0000.16,-000.01,0000.02,0000.12,26.1,09.2,0678.1,31.2
2020-07-02T02:20:00Z,00000380,00000600,0001.28,0001.11,0000.32,0000.59,0000.08,0000.15,0000.31,0000.34,0000.09,26.0,09.2,0678.1,31.2
2020-07-02T02:21:00Z,00000380,00000600,0001.88,0001.70,0000.57,0000.26,0000.26,0000.30,0000.26,0000.15,0000.27,26.1,09.3,0678.1,31.2
2020-07-02T02:22:00Z,00000380,00000600,0001.27,0001.42,0000.81,-000.01,0000.21,0000.37,0000.20,0000.16,0000.13,26.1,09.5,0678.1,31.2
2020-07-02T02:23:00Z,00000380,00000600,0001.83,0001.10,0000.95,0000.68,0000.16,0000.47,0000.14,0000.07,0000.14,26.0,09.5,0678.1,31.2
2020-07-02T02:24:00Z,00000380,00000600,0001.33,0001.20,0000.78,0001.24,-000.13,0000.52,0000.21,0000.27,-000.01,26.0,09.8,0678.1,31.2
2020-07-02T02:25:00Z,00000380,00000600,0002.99,0000.86,0000.29,-000.06,-000.44,0000.29,0000.32,0000.43,0000.24,26.0,09.9,0678.1,31.2
2020-07-02T02:26:00Z,00000380,00000600,0002.41,0000.59,0000.52,-000.64,-000.02,0000.59,0000.25,0000.01,0000.21,26.0,09.9,0678.1,31.2
2020-07-02T02:27:00Z,00000380,00000600,0000.90,0000.99,0000.52,-000.32,0000.28,0000.18,0000.12,0000.25,0000.02,26.0,10.0,0678.0,31.2
2020-07-02T02:28:00Z,00000380,00000600,0001.67,0000.71,0000.88,0000.32,-000.07,0000.32,0000.16,0000.13,0000.20,26.0,10.0,0678.0,31.2
2020-07-02T02:29:00Z,00000380,00000600,0001.47,0001.13,0000.02,0000.29,0000.05,0000.02,0000.18,0000.13,0000.13,26.0,10.0,0678.0,31.2
2020-07-02T02:30:00Z,00000380,00000600,0001.13,0001.11,0000.76,0000.28,0000.25,0000.35,0000.16,0000.16,0000.16,26.0,09.9,0678.0,31.1
2020-07-02T02:31:00Z,00000380,00000600,0001.41,0000.88,0000.97,-000.04,-000.01,0000.28,0000.27,0000.26,-000.03,26.0,10.0,0678.0,31.2
2020-07-02T02:32:00Z,00000380,00000600,0001.53,0000.98,0000.53,0000.10,0000.29,0000.48,0000.02,0000.01,0000.16,26.0,10.0,0678.0,31.2
2020-07-02T02:33:00Z,00000380,00000600,0001.77,0000.95,0001.02,0000.35,0000.32,0000.76,0000.21,0000.11,0000.13,26.0,09.9,0678.0,31.1
2020-07-02T02:34:00Z,00000380,00000600,0001.87,0001.34,0000.29,-000.73,0000.15,0000.15,0000.11,0000.16,-000.02,26.0,09.9,0678.0,31.2
2020-07-02T02:35:00Z,00000380,00000600,0000.58,0000.92,0001.05,0000.45,0000.22,0000.51,0000.02,0000.06,0000.23,26.0,09.9,0678.0,31.1
2020-07-02T02:36:00Z,00000380,00000600,0001.81,0001.60,0000.33,-000.74,0000.06,0000.39,0000.24,0000.12,0000.12,26.0,09.9,0678.0,31.1
2020-07-02T02:37:00Z,00000380,00000600,0001.09,0000.68,0000.63,-000.02,0000.32,0000.67,0000.07,0000.17,-000.04,26.0,09.8,0678.0,31.2
2020-07-02T02:38:00Z,00000380,00000600,0001.23,0001.37,0000.57,0000.06,0000.31,0000.21,0000.29,0000.13,0000.19,26.0,09.8,0678.0,31.1
2020-07-02T02:39:00Z,00000380,00000600,0001.12,0001.27,0000.69,0000.39,0000.49,0000.70,0000.04,0000.18,-000.01,26.0,09.8,0677.9,31.2
2020-07-02T02:40:00Z,00000380,00000600,0000.69,0000.82,0000.36,0000.07,0000.04,0000.22,0000.23,0000.06,0000.16,26.0,09.8,0677.9,31.2
2020-07-02T02:41:00Z,00000380,00000600,0002.43,0000.92,0001.07,-000.20,-000.03,0000.28,0000.15,0000.18,0000.12,26.0,09.7,0678.0,31.1
2020-07-02T02:42:00Z,00000380,00000600,0001.22,0000.99,0000.59,-000.02,0000.14,0000.24,0000.04,0000.08,0000.06,26.0,09.7,0677.9,31.2
2020-07-02T02:43:00Z,00000380,00000600,0001.54,0001.12,0000.45,-000.00,0000.36,0000.22,0000.22,0000.08,0000.08,26.0,09.7,0678.0,31.2
2020-07-02T02:44:00Z,00000380,00000600,0000.57,0001.01,0000.45,0000.63,0000.25,0000.51,0000.04,0000.07,-000.04,25.9,09.7,0678.0,31.2
2020-07-02T02:45:00Z,00000380,00000600,0001.85,0000.93,0000.81,0000.77,-000.03,0000.37,0000.16,0000.18,0000.21,26.0,09.7,0677.9,31.2
2020-07-02T02:46:00Z,00000380,00000600,0001.36,0000.99,0001.15,-000.23,0000.10,0000.33,0000.11,0000.14,0000.07,25.9,09.6,0677.9,31.2
2020-07-02T02:47:00Z,00000380,00000600,0001.69,0001.24,0000.55,0000.54,0000.35,-000.40,0000.03,0000.06,0000.00,26.0,09.5,0677.9,31.2
2020-07-02T02:48:00Z,00000380,00000600,0000.99,0001.16,-000.04,-000.64,0000.37,0000.15,0000.11,0000.18,0000.07,26.0,09.4,0677.9,31.2
2020-07-02T02:49:00Z,00000380,00000600,0001.78,0000.95,0000.49,-000.20,0000.14,0000.11,0000.14,-000.10,0000.10,25.9,09.4,0677.9,31.2
2020-07-02T02:50:00Z,00000380,00000600,0001.11,0000.47,0000.74,0000.02,0000.06,0000.24,0000.17,0000.20,0000.10,25.9,09.2,0677.9,31.1
2020-07-02T02:51:00Z,00000380,00000600,0002.02,0000.97,0000.31,-000.23,-000.03,0000.14,0000.21,0000.24,0000.30,25.9,09.2,0677.9,31.1
2020-07-02T02:52:00Z,00000380,00000600,0002.83,0001.37,0000.59,0000.08,0000.21,0000.31,0000.05,0000.06,-000.10,25.9,09.4,0677.9,31.2
2020-07-02T02:53:00Z,00000380,00000600,0001.34,0001.12,0001.01,0000.13,-000.30,0000.43,0000.14,0000.03,0000.04,26.0,09.3,0677.9,31.1
2020-07-02T02:54:00Z,00000380,00000600,0001.66,0000.92,0000.88,0000.78,0000.14,0000.19,0000.16,0000.29,0000.14,25.9,09.2,0677.9,31.1
2020-07-02T02:55:00Z,00000380,00000600,0000.25,0001.20,0000.68,0000.22,0000.12,0000.82,0000.30,0000.09,0000.22,25.9,09.4,0677.9,31.2
2020-07-02T02:56:00Z,00000380,00000600,0001.35,0001.17,0000.37,-000.39,0000.27,0000.15,0000.21,0000.37,0000.16,25.9,09.7,0677.9,31.1
2020-07-02T02:57:00Z,00000380,40000600,,,,,,,,,,26.0,10.0,0677.9,31.2
2020-07-02T02:58:00Z,00000380,60000600,,,,,,,,,,26.0,09.6,0676.8,31.2
2020-07-02T02:59:00Z,00000380,20000600,,,,,,,,,,26.1,09.6,0676.8,31.1
2020-07-02T03:00:00Z,00000380,20000600,,,,,,,,,,26.1,09.4,0676.8,31.1
2020-07-02T03:01:00Z,00000380,20000600,,,,,,,,,,26.1,09.3,0676.8,31.2
2020-07-02T03:02:00Z,00000380,20000600,,,,,,,,,,26.1,09.2,0676.8,31.1
2020-07-02T03:03:00Z,00000380,60000600,,,,,,,,,,26.1,09.2,0676.8,31.1
2020-07-02T03:04:00Z,00000380,40000600,0001.34,0001.30,0000.60,-000.63,0000.36,-000.22,0000.09,0000.09,0000.02,26.0,09.2,0677.7,31.1
2020-07-02T03:05:00Z,00000380,00000600,0002.16,0001.07,0000.76,0000.66,0000.55,0000.39,0000.11,0000.11,-000.04,25.9,09.2,0677.8,31.1
2020-07-02T03:06:00Z,00000380,00000600,0002.39,0000.85,0000.85,-000.04,0000.03,0000.32,0000.17,0000.27,0000.22,25.9,09.2,0677.8,31.1
2020-07-02T03:07:00Z,00000380,00000600,0001.59,0001.17,0000.53,0000.48,0000.55,0000.08,0000.25,0000.10,0000.02,25.9,09.2,0677.8,31.1
2020-07-02T03:08:00Z,00000380,00000600,0002.56,0000.72,0000.46,0000.31,0000.37,0000.24,-000.11,-000.00,0000.19,25.9,09.2,0677.9,31.2
2020-07-02T03:09:00Z,00000380,00000600,0001.68,0001.06,0000.77,-000.53,0000.20,-000.14,0000.23,0000.20,0000.01,25.9,09.2,0677.9,31.2
2020-07-02T03:10:00Z,00000380,00000600,0002.78,0000.97,0000.72,0000.17,0000.26,0000.21,0000.22,0000.08,0000.19,25.9,09.3,0677.9,31.1